Weather History for KLUK - March, 2014

Change the Weather History Date:

Wednesday, March 19, 2014

  Actual Average Record
Temperature  
Mean Temperature 46 °F -  
Max Temperature 55 °F 55 °F 82 °F (2012)
Min Temperature 36 °F 34 °F 17 °F (1965)
Degree Days  
Heating Degree Days 20    
Moisture  
Dew Point 42 °F    
Average Humidity 81    
Maximum Humidity 97    
Minimum Humidity 63    
Precipitation  
Precipitation 0.29 in - - ()
Sea Level Pressure  
Sea Level Pressure 29.87 in    
Wind  
Wind Speed 10 mph (SW)    
Max Wind Speed 23 mph    
Max Gust Speed 34 mph    
Visibility 9 miles    
Events Rain    
Averages and records for this station are not official NWS values.
T = Trace of Precipitation, MM = Missing Value Source: NWS Daily Summary

Daily Weather History Graph

Daily Weather History Graph

Search for Another Location

Airport or City:

Trip Planner

Search our weather history database for the weather conditions in past years. The results will help you decide how hot, cold, wet, or windy it might be!

Date:

Astronomy

Mar. 19, 2014 Rise Set
Actual Time 7:42 AM EDT 7:48 PM EDT
Civil Twilight 7:16 AM EDT 8:15 PM EDT
Nautical Twilight 6:44 AM EDT 8:46 PM EDT
Astronomical Twilight 6:13 AM EDT 9:18 PM EDT
Moon 11:04 PM EDT (3/19) 9:09 AM EDT (3/19)
Length of Visible Light 12h 59m
Length of Day
12h 05m
Waning Gibbous, 91% of the Moon is Illuminated
Mar 19
Waning Gibbous
Mar 23
Last Quarter
Mar 30
New
Apr 7
First Quarter
Apr 15
Full

Hourly Weather History & Observations

Time (EDT) Temp. Windchill Dew Point Humidity Pressure Visibility Wind Dir Wind Speed Gust Speed Precip Events Conditions
12:53 AM 39.0 °F - 36.0 °F 89% 29.87 in 10.0 mi Calm Calm - N/A   Clear
1:53 AM 37.0 °F - 35.1 °F 93% 29.88 in 10.0 mi Calm Calm - N/A   Clear
2:35 AM 36.0 °F 32.1 °F 35.1 °F 97% 29.87 in 10.0 mi SSW 4.6 mph - N/A   Mostly Cloudy
2:53 AM 39.9 °F 33.9 °F 37.9 °F 93% 29.88 in 10.0 mi SSW 9.2 mph - N/A   Mostly Cloudy
3:53 AM 46.0 °F 40.6 °F 42.1 °F 86% 29.88 in 10.0 mi SSW 11.5 mph - N/A   Overcast
4:53 AM 48.9 °F - 42.1 °F 77% 29.87 in 10.0 mi SSW 16.1 mph 21.9 mph N/A   Overcast
5:53 AM 48.0 °F - 41.0 °F 77% 29.85 in 10.0 mi South 16.1 mph - N/A   Scattered Clouds
6:53 AM 48.0 °F - 41.0 °F 77% 29.86 in 10.0 mi South 12.7 mph - N/A   Overcast
7:53 AM 48.9 °F - 41.0 °F 74% 29.86 in 10.0 mi South 12.7 mph - N/A   Overcast
8:53 AM 48.0 °F - 43.0 °F 83% 29.87 in 5.0 mi South 9.2 mph - 0.03 in Rain Light Rain
9:05 AM 46.9 °F - 44.1 °F 90% 29.86 in 3.0 mi South 8.1 mph - 0.03 in Rain Rain
9:53 AM 46.9 °F - 44.1 °F 90% 29.83 in 4.0 mi SSE 17.3 mph 25.3 mph 0.17 in Rain Rain
10:00 AM 46.9 °F - 44.1 °F 90% 29.82 in 2.5 mi SSE 17.3 mph 25.3 mph 0.03 in Rain Rain
10:43 AM 46.9 °F - 45.0 °F 93% 29.82 in 9.0 mi South 6.9 mph - 0.07 in Rain Light Rain
10:53 AM 46.9 °F - 45.0 °F 93% 29.83 in 10.0 mi South 10.4 mph - 0.07 in   Overcast
11:31 AM 48.9 °F - 45.0 °F 86% 29.82 in 10.0 mi South 11.5 mph - N/A   Overcast
11:53 AM 48.9 °F - 46.0 °F 90% 29.83 in 8.0 mi South 11.5 mph - N/A   Overcast
12:53 PM 50.0 °F - 46.9 °F 89% 29.82 in 3.0 mi South 11.5 mph - 0.00 in Rain Light Rain
1:45 PM 50.0 °F - 48.0 °F 93% 29.81 in 5.0 mi SSW 17.3 mph - 0.01 in   Overcast
1:53 PM 51.1 °F - 48.0 °F 89% 29.81 in 6.0 mi SSW 15.0 mph - 0.01 in   Overcast
2:23 PM 53.1 °F - 48.9 °F 86% 29.80 in 10.0 mi SSW 16.1 mph - N/A   Overcast
2:53 PM 54.0 °F - 48.0 °F 80% 29.80 in 10.0 mi SSW 17.3 mph 27.6 mph N/A   Overcast
3:40 PM 55.0 °F - 46.9 °F 74% 29.79 in 10.0 mi WSW 13.8 mph 25.3 mph N/A   Overcast
3:53 PM 55.0 °F - 46.0 °F 72% 29.79 in 10.0 mi SW 13.8 mph - N/A   Overcast
4:53 PM 52.0 °F - 46.0 °F 80% 29.81 in 10.0 mi SW 15.0 mph 25.3 mph 0.01 in   Overcast
5:53 PM 52.0 °F - 42.1 °F 69% 29.85 in 10.0 mi West 23.0 mph 34.5 mph 0.00 in   Mostly Cloudy
6:53 PM 50.0 °F - 37.9 °F 63% 29.89 in 10.0 mi West 18.4 mph 27.6 mph N/A   Overcast
7:53 PM 48.9 °F - 39.0 °F 69% 29.93 in 10.0 mi WSW 12.7 mph - N/A   Overcast
8:53 PM 46.9 °F - 36.0 °F 66% 29.97 in 10.0 mi West 12.7 mph 21.9 mph N/A   Overcast
9:53 PM 45.0 °F 38.9 °F 35.1 °F 68% 30.00 in 10.0 mi WNW 12.7 mph 24.2 mph N/A   Overcast
10:53 PM 44.1 °F 38.1 °F 33.1 °F 65% 30.03 in 10.0 mi West 11.5 mph 21.9 mph N/A   Overcast
11:39 PM 43.0 °F 37.2 °F 33.1 °F 68% 30.03 in 10.0 mi West 10.4 mph - N/A   Overcast
11:53 PM 42.1 °F 35.7 °F 33.1 °F 70% 30.04 in 10.0 mi West 11.5 mph 20.7 mph N/A   Overcast